User: anonymous
Location: Potawatomi Wildlife Park
(41.2308°N, 86.1050°W)
Time: 12:47:18
(UTC-04:00)
Language:

SL-16 R/B - Orbit

View from above orbital plane
View from above orbital plane
View from above satellite
View from above satellite

Ground track
Ground track

The orbit data is extracted from the following two-line orbital elements,

1 27006U 01056F   14107.93830596 -.00000003  00000-0  43576-4 0  1077
2 27006 099.1603 278.6614 0015499 091.2250 062.6543 13.70915130618063
Epoch (UTC): 17 April 2014 22:31:09
Eccentricity: 0.0015499
inclination: 99.1603°
perigee height: 985 km
apogee height: 1008 km
right ascension of ascending node: 278.6614°
argument of perigee: 91.2250°
revolutions per day: 13.70915130
mean anomaly at epoch: 62.6543°
orbit number at epoch: 61806

The dashed part of the orbit path shows where the satellite is in the earth's shadow,  

DLR